sat.trackr.live / text

‹ back to catalog

SKYSAT-C4

NORAD 41771 · 2016-058B

PAYLOAD ACTIVE UNKNOWN

§ Identity

Operator
Country
US
Launch date
2016-09-16
Launch site
FRGUI
Launch vehicle
Mass (kg)
RCS (m²)
0.39

Purposes: earth_obs

External: N2YO · Heavens-Above · Gunter

§ Orbital elements

Epoch: 2026-09-19T18:47:52.152000Z

Period
92.82 min
Inclination
96.9170°
Eccentricity
0.0000651
Mean motion
15.51309509 rev/d
Perigee alt
412.5 km
Apogee alt
413.3 km
Semi-major
6,791.0 km
B*
2.2574e-4
RAAN
280.7606°
Arg perigee
172.4662°
Mean anomaly
187.6601°
Rev number
56,012

§ Raw data

SKYSAT-C41 41771U 16058B   26262.78324250  .00013165  00000+0  22574-3 0  99972 41771  96.9170 280.7606 0000651 172.4662 187.6601 15.51309509560124

JSON: /api/v1/satellites/41771 · /tle

For live sub-satellite position, see the globe view (requires WebGL).

§ Visibility from observer

Set your observer location to see the next 7 days of passes ≥ 10°. The values pass through the URL so the page stays shareable.

No JS? Fill the form by hand. The geolocation button needs JavaScript.